Regional Weather Roundup
Issued by NWS

Home | Current Version | Previous Version | Graphics & Text | Print | Product List | Glossary On
Versions: 1 2 3 4 5 6 7 8 9 10 11 12 13 14 15 16 17 18 19 20 21 22 23 24 25 26 27 28 29 30 31 32 33 34 35 36 37 38 39 40 41 42 43 44 45 46 47 48 49 50
576
ASUS43 KFSD 260202
RWRSD

WEATHER ROUNDUP FOR SOUTH DAKOTA
NATIONAL WEATHER SERVICE SIOUX FALLS SD
900 PM CDT TUE APR 25 2017

NOTE: "FAIR" INDICATES FEW OR NO CLOUDS BELOW 12,000 FEET WITH NO
SIGNIFICANT WEATHER AND/OR OBSTRUCTIONS TO VISIBILITY.


SDZ001>005-009-010-012>017-260300-
NORTHWEST AND NORTH CENTRAL SOUTH DAKOTA

CITY           SKY/WX    TMP DP  RH WIND       PRES   REMARKS
BUFFALO          N/A     30  25  81 N9        29.84R WCI  22
FAITH            N/A     29  27  92 N13       29.87R WCI  19
MOBRIDGE       CLOUDY    34  25  69 N15       29.84R WCI  24
$$

SDZ012>016-024>037-041>051-057-063-072>074-260300-
SOUTHWEST AND SOUTH CENTRAL SOUTH DAKOTA

CITY           SKY/WX    TMP DP  RH WIND       PRES   REMARKS
RAPID CTY ARPT CLOUDY    28  24  85 N16       29.87R WCI  16
PIERRE         LGT SNOW  32  28  85 N14       29.82R FOG     WCI  22
CUSTER         LGT SNOW  26  22  84 N5        29.76R FOG     WCI  20
ELLSWORTH AFB  LGT SNOW  28  28 100 N15       29.86R FOG     WCI  16
PHILIP         CLOUDY    31  29  92 N14       29.87R WCI  21
PINE RIDGE     CLOUDY    30  26  85 N8        29.85R WCI  22
SPEARFISH      LGT SNOW  25  25 100 NW8       29.88R WCI  16
WINNER         CLOUDY    35  31  85 NW16      29.80R WCI  25
$$

SDZ004>011-016>023-039-040-260300-
NORTHEAST SOUTH DAKOTA

CITY           SKY/WX    TMP DP  RH WIND       PRES   REMARKS
ABERDEEN       CLOUDY    33  26  75 N22G29    29.80R WCI  21
WATERTOWN      CLOUDY    33  31  92 N17       29.70R WCI  22
BROOKINGS      LGT RAIN  34  33  96 N18       29.67S WCI  23
SISSETON         N/A     35  33  92 N21       29.74R WCI  24
$$

SDZ017-020-022-023-036>040-048>070-260300-
SOUTHEAST SOUTH DAKOTA

CITY           SKY/WX    TMP DP  RH WIND       PRES   REMARKS
SIOUX FALLS    LGT RAIN  37  37 100 N20G25    29.66S
HURON          MIX PCPN  33  32  96 N17       29.77R WCI  22
CHAMBERLAIN    CLOUDY    37  32  84 NW16G23   29.79R
MITCHELL       CLOUDY    35  32  88 N20G26    29.75S WCI  24
YANKTON        CLOUDY    36  32  87 NW20G26   29.68S
$$

ABBREVIATIONS USED IN REMARKS
   TC - TEMPERATURE IN CELSIUS
  WCI - WIND CHILL INDEX
   HX - HEAT INDEX
  VSB - VISIBILITY





USA.gov is the U.S. government's official web portal to all federal, state and local government web resources and services.